Year,Month,Day,Hour,Minute,Value (Times are PST for temperature in C)
2015,07,19,00,00,18.80
2015,07,19,00,01,18.70
2015,07,19,00,02,18.70
2015,07,19,00,03,18.70
2015,07,19,00,04,18.70
2015,07,19,00,05,18.70
2015,07,19,00,06,18.70
2015,07,19,00,07,18.70
2015,07,19,00,08,18.60
2015,07,19,00,09,18.60
2015,07,19,00,10,18.60
2015,07,19,00,11,18.60
2015,07,19,00,12,18.60
2015,07,19,00,13,18.60
2015,07,19,00,14,18.60
2015,07,19,00,15,18.60
2015,07,19,00,16,18.60
2015,07,19,00,17,18.60
2015,07,19,00,18,18.60
2015,07,19,00,19,18.60
2015,07,19,00,20,18.50
2015,07,19,00,21,18.50
2015,07,19,00,22,18.50
2015,07,19,00,23,18.50
2015,07,19,00,24,18.50
2015,07,19,00,25,18.40
2015,07,19,00,26,18.40
2015,07,19,00,27,18.40
2015,07,19,00,28,18.30
2015,07,19,00,29,18.30
2015,07,19,00,30,18.30
2015,07,19,00,31,18.30
2015,07,19,00,32,18.30
2015,07,19,00,33,18.20
2015,07,19,00,34,18.20
2015,07,19,00,35,18.20
2015,07,19,00,36,18.20
2015,07,19,00,37,18.20
2015,07,19,00,38,18.20
2015,07,19,00,39,18.20
2015,07,19,00,40,18.20
2015,07,19,00,41,18.20
2015,07,19,00,42,18.20
2015,07,19,00,43,18.20
2015,07,19,00,44,18.20
2015,07,19,00,45,18.10
2015,07,19,00,46,18.10
2015,07,19,00,47,18.10
2015,07,19,00,48,18.20
2015,07,19,00,49,18.20
2015,07,19,00,50,18.30
2015,07,19,00,51,18.30
2015,07,19,00,52,18.40
2015,07,19,00,53,18.40
2015,07,19,00,54,18.40
2015,07,19,00,55,18.40
2015,07,19,00,56,18.30
2015,07,19,00,57,18.30
2015,07,19,00,58,18.30
2015,07,19,00,59,18.30
2015,07,19,01,00,18.30
2015,07,19,01,01,18.30
2015,07,19,01,02,18.30
2015,07,19,01,03,18.30
2015,07,19,01,04,18.30
2015,07,19,01,05,18.30
2015,07,19,01,06,18.30
2015,07,19,01,07,18.30
2015,07,19,01,08,18.40
2015,07,19,01,09,18.50
2015,07,19,01,10,18.60
2015,07,19,01,11,18.70
2015,07,19,01,12,18.70
2015,07,19,01,13,18.80
2015,07,19,01,14,18.80
2015,07,19,01,15,18.80
2015,07,19,01,16,18.80
2015,07,19,01,17,18.70
2015,07,19,01,18,18.70
2015,07,19,01,19,18.60
2015,07,19,01,20,18.60
2015,07,19,01,21,18.50
2015,07,19,01,22,18.50
2015,07,19,01,23,18.40
2015,07,19,01,24,18.40
2015,07,19,01,25,18.30
2015,07,19,01,26,18.30
2015,07,19,01,27,18.20
2015,07,19,01,28,18.20
2015,07,19,01,29,18.10
2015,07,19,01,30,18.10
2015,07,19,01,31,18.00
2015,07,19,01,32,18.00
2015,07,19,01,33,17.90
2015,07,19,01,34,17.80
2015,07,19,01,35,17.80
2015,07,19,01,36,17.70
2015,07,19,01,37,17.70
2015,07,19,01,38,17.60
2015,07,19,01,39,17.60
2015,07,19,01,40,17.60
2015,07,19,01,41,17.60
2015,07,19,01,42,17.50
2015,07,19,01,43,17.50
2015,07,19,01,44,17.50
2015,07,19,01,45,17.50
2015,07,19,01,46,17.50
2015,07,19,01,47,17.50
2015,07,19,01,48,17.40
2015,07,19,01,49,17.40
2015,07,19,01,50,17.40
2015,07,19,01,51,17.40
2015,07,19,01,52,17.40
2015,07,19,01,53,17.40
2015,07,19,01,54,17.40
2015,07,19,01,55,17.40
2015,07,19,01,56,17.40
2015,07,19,01,57,17.30
2015,07,19,01,58,17.30
2015,07,19,01,59,17.30
2015,07,19,02,00,17.30
2015,07,19,02,01,17.30
2015,07,19,02,02,17.30
2015,07,19,02,03,17.30
2015,07,19,02,04,17.30
2015,07,19,02,05,17.20
2015,07,19,02,06,17.20
2015,07,19,02,07,17.20
2015,07,19,02,08,17.20
2015,07,19,02,09,17.20
2015,07,19,02,10,17.20
2015,07,19,02,11,17.10
2015,07,19,02,12,17.20
2015,07,19,02,13,17.10
2015,07,19,02,14,17.10
2015,07,19,02,15,17.10
2015,07,19,02,16,17.10
2015,07,19,02,17,17.10
2015,07,19,02,18,17.10
2015,07,19,02,19,17.10
2015,07,19,02,20,17.10
2015,07,19,02,21,17.10
2015,07,19,02,22,17.00
2015,07,19,02,23,17.00
2015,07,19,02,24,17.00
2015,07,19,02,25,17.00
2015,07,19,02,26,16.90
2015,07,19,02,27,16.90
2015,07,19,02,28,16.90
2015,07,19,02,29,16.90
2015,07,19,02,30,16.90
2015,07,19,02,31,16.90
2015,07,19,02,32,16.90
2015,07,19,02,33,16.90
2015,07,19,02,34,16.90
2015,07,19,02,35,16.90
2015,07,19,02,36,16.90
2015,07,19,02,37,16.90
2015,07,19,02,38,16.90
2015,07,19,02,39,16.90
2015,07,19,02,40,16.90
2015,07,19,02,41,17.00
2015,07,19,02,42,17.00
2015,07,19,02,43,17.10
2015,07,19,02,44,17.10
2015,07,19,02,45,17.10
2015,07,19,02,46,17.10
2015,07,19,02,47,17.10
2015,07,19,02,48,17.10
2015,07,19,02,49,17.10
2015,07,19,02,50,17.10
2015,07,19,02,51,17.10
2015,07,19,02,52,17.10
2015,07,19,02,53,17.00
2015,07,19,02,54,17.00
2015,07,19,02,55,17.00
2015,07,19,02,56,16.90
2015,07,19,02,57,16.90
2015,07,19,02,58,16.90
2015,07,19,02,59,16.90
2015,07,19,03,00,16.80
2015,07,19,03,01,16.80
2015,07,19,03,02,16.80
2015,07,19,03,03,16.80
2015,07,19,03,04,16.80
2015,07,19,03,05,16.70
2015,07,19,03,06,16.70
2015,07,19,03,07,16.70
2015,07,19,03,08,16.70
2015,07,19,03,09,16.70
2015,07,19,03,10,16.70
2015,07,19,03,11,16.80
2015,07,19,03,12,16.80
2015,07,19,03,13,16.80
2015,07,19,03,14,16.80
2015,07,19,03,15,16.90
2015,07,19,03,16,16.90
2015,07,19,03,17,16.90
2015,07,19,03,18,17.00
2015,07,19,03,19,17.00
2015,07,19,03,20,17.00
2015,07,19,03,21,16.90
2015,07,19,03,22,16.90
2015,07,19,03,23,16.90
2015,07,19,03,24,16.90
2015,07,19,03,25,16.80
2015,07,19,03,26,16.80
2015,07,19,03,27,16.80
2015,07,19,03,28,16.70
2015,07,19,03,29,16.80
2015,07,19,03,30,16.80
2015,07,19,03,31,16.80
2015,07,19,03,32,16.90
2015,07,19,03,33,17.00
2015,07,19,03,34,17.00
2015,07,19,03,35,17.10
2015,07,19,03,36,17.10
2015,07,19,03,37,17.10
2015,07,19,03,38,17.10
2015,07,19,03,39,17.10
2015,07,19,03,40,17.10
2015,07,19,03,41,17.10
2015,07,19,03,42,17.10
2015,07,19,03,43,17.10
2015,07,19,03,44,17.10
2015,07,19,03,45,17.00
2015,07,19,03,46,17.00
2015,07,19,03,47,17.00
2015,07,19,03,48,17.00
2015,07,19,03,49,16.90
2015,07,19,03,50,16.90
2015,07,19,03,51,16.90
2015,07,19,03,52,16.90
2015,07,19,03,53,16.90
2015,07,19,03,54,16.90
2015,07,19,03,55,16.80
2015,07,19,03,56,16.80
2015,07,19,03,57,16.80
2015,07,19,03,58,16.80
2015,07,19,03,59,16.70
2015,07,19,04,00,16.70
2015,07,19,04,01,16.70
2015,07,19,04,02,16.70
2015,07,19,04,03,16.70
2015,07,19,04,04,16.70
2015,07,19,04,05,16.70
2015,07,19,04,06,16.70
2015,07,19,04,07,16.70
2015,07,19,04,08,16.80
2015,07,19,04,09,16.80
2015,07,19,04,10,16.80
2015,07,19,04,11,16.80
2015,07,19,04,12,16.80
2015,07,19,04,13,16.80
2015,07,19,04,14,16.80
2015,07,19,04,15,16.80
2015,07,19,04,16,16.90
2015,07,19,04,17,16.90
2015,07,19,04,18,16.90
2015,07,19,04,19,17.00
2015,07,19,04,20,17.00
2015,07,19,04,21,17.10
2015,07,19,04,22,17.10
2015,07,19,04,23,17.20
2015,07,19,04,24,17.20
2015,07,19,04,25,17.20
2015,07,19,04,26,17.20
2015,07,19,04,27,17.20
2015,07,19,04,28,17.20
2015,07,19,04,29,17.20
2015,07,19,04,30,17.20
2015,07,19,04,31,17.20
2015,07,19,04,32,17.20
2015,07,19,04,33,17.20
2015,07,19,04,34,17.20
2015,07,19,04,35,17.20
2015,07,19,04,36,17.20
2015,07,19,04,37,17.20
2015,07,19,04,38,17.20
2015,07,19,04,39,17.20
2015,07,19,04,40,17.20
2015,07,19,04,41,17.20
2015,07,19,04,42,17.20
2015,07,19,04,43,17.20
2015,07,19,04,44,17.20
2015,07,19,04,45,17.20
2015,07,19,04,46,17.20
2015,07,19,04,47,17.20
2015,07,19,04,48,17.30
2015,07,19,04,49,17.30
2015,07,19,04,50,17.40
2015,07,19,04,51,17.40
2015,07,19,04,52,17.40
2015,07,19,04,53,17.50
2015,07,19,04,54,17.50
2015,07,19,04,55,17.50
2015,07,19,04,56,17.50
2015,07,19,04,57,17.50
2015,07,19,04,58,17.50
2015,07,19,04,59,17.60
2015,07,19,05,00,17.60
2015,07,19,05,01,17.60
2015,07,19,05,02,17.60
2015,07,19,05,03,17.60
2015,07,19,05,04,17.60
2015,07,19,05,05,17.60
2015,07,19,05,06,17.50
2015,07,19,05,07,17.50
2015,07,19,05,08,17.50
2015,07,19,05,09,17.50
2015,07,19,05,10,17.50
2015,07,19,05,11,17.50
2015,07,19,05,12,17.50
2015,07,19,05,13,17.50
2015,07,19,05,14,17.50
2015,07,19,05,15,17.50
2015,07,19,05,16,17.60
2015,07,19,05,17,17.60
2015,07,19,05,18,17.60
2015,07,19,05,19,17.60
2015,07,19,05,20,17.60
2015,07,19,05,21,17.60
2015,07,19,05,22,17.60
2015,07,19,05,23,17.60
2015,07,19,05,24,17.60
2015,07,19,05,25,17.60
2015,07,19,05,26,17.50
2015,07,19,05,27,17.50
2015,07,19,05,28,17.50
2015,07,19,05,29,17.40
2015,07,19,05,30,17.40
2015,07,19,05,31,17.40
2015,07,19,05,32,17.40
2015,07,19,05,33,17.30
2015,07,19,05,34,17.30
2015,07,19,05,35,17.30
2015,07,19,05,36,17.30
2015,07,19,05,37,17.30
2015,07,19,05,38,17.30
2015,07,19,05,39,17.40
2015,07,19,05,40,17.40
2015,07,19,05,41,17.40
2015,07,19,05,42,17.40
2015,07,19,05,43,17.40
2015,07,19,05,44,17.40
2015,07,19,05,45,17.40
2015,07,19,05,46,17.40
2015,07,19,05,47,17.40
2015,07,19,05,48,17.40
2015,07,19,05,49,17.40
2015,07,19,05,50,17.40
2015,07,19,05,51,17.40
2015,07,19,05,52,17.40
2015,07,19,05,53,17.40
2015,07,19,05,54,17.50
2015,07,19,05,55,17.50
2015,07,19,05,56,17.60
2015,07,19,05,57,17.60
2015,07,19,05,58,17.70
2015,07,19,05,59,17.70
2015,07,19,06,00,17.80
2015,07,19,06,01,17.80
2015,07,19,06,02,17.80
2015,07,19,06,03,17.90
2015,07,19,06,04,17.90
2015,07,19,06,05,18.00
2015,07,19,06,06,18.00
2015,07,19,06,07,18.10
2015,07,19,06,08,18.10
2015,07,19,06,09,18.10
2015,07,19,06,10,18.10
2015,07,19,06,11,18.10
2015,07,19,06,12,18.10
2015,07,19,06,13,18.10
2015,07,19,06,14,18.10
2015,07,19,06,15,18.10
2015,07,19,06,16,18.10
2015,07,19,06,17,18.20
2015,07,19,06,18,18.20
2015,07,19,06,19,18.30
2015,07,19,06,20,18.40
2015,07,19,06,21,18.50
2015,07,19,06,22,18.50
2015,07,19,06,23,18.60
2015,07,19,06,24,18.70
2015,07,19,06,25,18.80
2015,07,19,06,26,18.80
2015,07,19,06,27,18.90
2015,07,19,06,28,19.00
2015,07,19,06,29,19.00
2015,07,19,06,30,19.10
2015,07,19,06,31,19.10
2015,07,19,06,32,19.20
2015,07,19,06,33,19.20
2015,07,19,06,34,19.20
2015,07,19,06,35,19.20
2015,07,19,06,36,19.20
2015,07,19,06,37,19.20
2015,07,19,06,38,19.20
2015,07,19,06,39,19.20
2015,07,19,06,40,19.20
2015,07,19,06,41,19.20
2015,07,19,06,42,19.20
2015,07,19,06,43,19.20
2015,07,19,06,44,19.20
2015,07,19,06,45,19.20
2015,07,19,06,46,19.20
2015,07,19,06,47,19.20
2015,07,19,06,48,19.20
2015,07,19,06,49,19.20
2015,07,19,06,50,19.20
2015,07,19,06,51,19.20
2015,07,19,06,52,19.20
2015,07,19,06,53,19.20
2015,07,19,06,54,19.20
2015,07,19,06,55,19.20
2015,07,19,06,56,19.20
2015,07,19,06,57,19.20
2015,07,19,06,58,19.20
2015,07,19,06,59,19.20
2015,07,19,07,00,19.20
2015,07,19,07,01,19.20
2015,07,19,07,02,19.20
2015,07,19,07,03,19.30
2015,07,19,07,04,19.30
2015,07,19,07,05,19.30
2015,07,19,07,06,19.40
2015,07,19,07,07,19.50
2015,07,19,07,08,19.60
2015,07,19,07,09,19.70
2015,07,19,07,10,19.80
2015,07,19,07,11,19.90
2015,07,19,07,12,20.00
2015,07,19,07,13,20.20
2015,07,19,07,14,20.30
2015,07,19,07,15,20.30
2015,07,19,07,16,20.40
2015,07,19,07,17,20.50
2015,07,19,07,18,20.50
2015,07,19,07,19,20.50
2015,07,19,07,20,20.60
2015,07,19,07,21,20.60
2015,07,19,07,22,20.60
2015,07,19,07,23,20.70
2015,07,19,07,24,20.70
2015,07,19,07,25,20.70
2015,07,19,07,26,20.70
2015,07,19,07,27,20.70
2015,07,19,07,28,20.70
2015,07,19,07,29,20.80
2015,07,19,07,30,20.80
2015,07,19,07,31,20.80
2015,07,19,07,32,20.80
2015,07,19,07,33,20.80
2015,07,19,07,34,20.80
2015,07,19,07,35,20.70
2015,07,19,07,36,20.70
2015,07,19,07,37,20.70
2015,07,19,07,38,20.70
2015,07,19,07,39,20.70
2015,07,19,07,40,20.70
2015,07,19,07,41,20.70
2015,07,19,07,42,20.70
2015,07,19,07,43,20.70
2015,07,19,07,44,20.70
2015,07,19,07,45,20.80
2015,07,19,07,46,20.80
2015,07,19,07,47,20.80
2015,07,19,07,48,20.80
2015,07,19,07,49,20.80
2015,07,19,07,50,20.90
2015,07,19,07,51,20.90
2015,07,19,07,52,21.00
2015,07,19,07,53,21.00
2015,07,19,07,54,21.10
2015,07,19,07,55,21.10
2015,07,19,07,56,21.10
2015,07,19,07,57,21.10
2015,07,19,07,58,21.10
2015,07,19,07,59,21.20
2015,07,19,08,00,21.20
2015,07,19,08,01,21.30
2015,07,19,08,02,21.30
2015,07,19,08,03,21.40
2015,07,19,08,04,21.50
2015,07,19,08,05,21.60
2015,07,19,08,06,21.60
2015,07,19,08,07,21.60
2015,07,19,08,08,21.70
2015,07,19,08,09,21.70
2015,07,19,08,10,21.80
2015,07,19,08,11,21.90
2015,07,19,08,12,22.00
2015,07,19,08,13,22.00
2015,07,19,08,14,22.10
2015,07,19,08,15,22.10
2015,07,19,08,16,22.20
2015,07,19,08,17,22.20
2015,07,19,08,18,22.30
2015,07,19,08,19,22.40
2015,07,19,08,20,22.50
2015,07,19,08,21,22.50
2015,07,19,08,22,22.60
2015,07,19,08,23,22.60
2015,07,19,08,24,22.60
2015,07,19,08,25,22.60
2015,07,19,08,26,22.60
2015,07,19,08,27,22.60
2015,07,19,08,28,22.60
2015,07,19,08,29,22.60
2015,07,19,08,30,22.60
2015,07,19,08,31,22.70
2015,07,19,08,32,22.60
2015,07,19,08,33,22.60
2015,07,19,08,34,22.60
2015,07,19,08,35,22.50
2015,07,19,08,36,22.50
2015,07,19,08,37,22.50
2015,07,19,08,38,22.50
2015,07,19,08,39,22.60
2015,07,19,08,40,22.60
2015,07,19,08,41,22.60
2015,07,19,08,42,22.70
2015,07,19,08,43,22.70
2015,07,19,08,44,22.80
2015,07,19,08,45,22.80
2015,07,19,08,46,22.80
2015,07,19,08,47,22.80
2015,07,19,08,48,22.90
2015,07,19,08,49,22.90
2015,07,19,08,50,23.00
2015,07,19,08,51,23.10
2015,07,19,08,52,23.20
2015,07,19,08,53,23.30
2015,07,19,08,54,23.40
2015,07,19,08,55,23.50
2015,07,19,08,56,23.50
2015,07,19,08,57,23.60
2015,07,19,08,58,23.70
2015,07,19,08,59,23.70
2015,07,19,09,00,23.70
2015,07,19,09,01,23.70
2015,07,19,09,02,23.80
2015,07,19,09,03,23.80
2015,07,19,09,04,23.90
2015,07,19,09,05,23.90
2015,07,19,09,06,23.90
2015,07,19,09,07,23.90
2015,07,19,09,08,23.90
2015,07,19,09,09,23.90
2015,07,19,09,10,23.90
2015,07,19,09,11,23.90
2015,07,19,09,12,23.90
2015,07,19,09,13,23.90
2015,07,19,09,14,23.90
2015,07,19,09,15,23.90
2015,07,19,09,16,23.90
2015,07,19,09,17,23.90
2015,07,19,09,18,23.90
2015,07,19,09,19,23.90
2015,07,19,09,20,23.80
2015,07,19,09,21,23.70
2015,07,19,09,22,23.60
2015,07,19,09,23,23.60
2015,07,19,09,24,23.50
2015,07,19,09,25,23.60
2015,07,19,09,26,23.60
2015,07,19,09,27,23.60
2015,07,19,09,28,23.50
2015,07,19,09,29,23.40
2015,07,19,09,30,23.20
2015,07,19,09,31,23.10
2015,07,19,09,32,22.90
2015,07,19,09,33,22.70
2015,07,19,09,34,22.60
2015,07,19,09,35,22.50
2015,07,19,09,36,22.50
2015,07,19,09,37,22.50
2015,07,19,09,38,22.50
2015,07,19,09,39,22.60
2015,07,19,09,40,22.50
2015,07,19,09,41,22.50
2015,07,19,09,42,22.50
2015,07,19,09,43,22.50
2015,07,19,09,44,22.40
2015,07,19,09,45,22.40
2015,07,19,09,46,22.40
2015,07,19,09,47,22.40
2015,07,19,09,48,22.30
2015,07,19,09,49,22.30
2015,07,19,09,50,22.30
2015,07,19,09,51,22.30
2015,07,19,09,52,22.20
2015,07,19,09,53,22.10
2015,07,19,09,54,22.00
2015,07,19,09,55,21.80
2015,07,19,09,56,21.70
2015,07,19,09,57,21.60
2015,07,19,09,58,21.70
2015,07,19,09,59,21.70
2015,07,19,10,00,21.70
2015,07,19,10,01,21.70
2015,07,19,10,02,21.80
2015,07,19,10,03,21.80
2015,07,19,10,04,21.90
2015,07,19,10,05,22.10
2015,07,19,10,06,22.30
2015,07,19,10,07,22.40
2015,07,19,10,08,22.50
2015,07,19,10,09,22.60
2015,07,19,10,10,22.60
2015,07,19,10,11,22.70
2015,07,19,10,12,22.70
2015,07,19,10,13,22.70
2015,07,19,10,14,22.80
2015,07,19,10,15,22.80
2015,07,19,10,16,22.90
2015,07,19,10,17,22.90
2015,07,19,10,18,22.90
2015,07,19,10,19,22.80
2015,07,19,10,20,22.70
2015,07,19,10,21,22.60
2015,07,19,10,22,22.60
2015,07,19,10,23,22.50
2015,07,19,10,24,22.40
2015,07,19,10,25,22.40
2015,07,19,10,26,22.40
2015,07,19,10,27,22.30
2015,07,19,10,28,22.30
2015,07,19,10,29,22.30
2015,07,19,10,30,22.30
2015,07,19,10,31,22.30
2015,07,19,10,32,22.50
2015,07,19,10,33,22.60
2015,07,19,10,34,22.70
2015,07,19,10,35,22.70
2015,07,19,10,36,22.80
2015,07,19,10,37,22.80
2015,07,19,10,38,22.90
2015,07,19,10,39,23.00
2015,07,19,10,40,23.20
2015,07,19,10,41,23.20
2015,07,19,10,42,23.30
2015,07,19,10,43,23.30
2015,07,19,10,44,23.30
2015,07,19,10,45,23.20
2015,07,19,10,46,23.10
2015,07,19,10,47,23.10
2015,07,19,10,48,23.10
2015,07,19,10,49,23.00
2015,07,19,10,50,23.00
2015,07,19,10,51,22.90
2015,07,19,10,52,22.80
2015,07,19,10,53,22.70
2015,07,19,10,54,22.70
2015,07,19,10,55,22.70
2015,07,19,10,56,22.70
2015,07,19,10,57,22.70
2015,07,19,10,58,22.80
2015,07,19,10,59,22.80
2015,07,19,11,00,22.80
2015,07,19,11,01,22.80
2015,07,19,11,02,22.90
2015,07,19,11,03,23.00
2015,07,19,11,04,23.20
2015,07,19,11,05,23.40
2015,07,19,11,06,23.60
2015,07,19,11,07,23.80
2015,07,19,11,08,23.90
2015,07,19,11,09,23.90
2015,07,19,11,10,23.90
2015,07,19,11,11,23.80
2015,07,19,11,12,23.90
2015,07,19,11,13,23.80
2015,07,19,11,14,23.80
2015,07,19,11,15,23.80
2015,07,19,11,16,23.80
2015,07,19,11,17,23.90
2015,07,19,11,18,23.90
2015,07,19,11,19,24.00
2015,07,19,11,20,24.10
2015,07,19,11,21,24.20
2015,07,19,11,22,24.30
2015,07,19,11,23,24.30
2015,07,19,11,24,24.40
2015,07,19,11,25,24.50
2015,07,19,11,26,24.60
2015,07,19,11,27,24.60
2015,07,19,11,28,24.60
2015,07,19,11,29,24.50
2015,07,19,11,30,24.30
2015,07,19,11,31,24.10
2015,07,19,11,32,24.00
2015,07,19,11,33,24.00
2015,07,19,11,34,24.00
2015,07,19,11,35,24.10
2015,07,19,11,36,24.20
2015,07,19,11,37,24.30
2015,07,19,11,38,24.50
2015,07,19,11,39,24.70
2015,07,19,11,40,24.80
2015,07,19,11,41,24.90
2015,07,19,11,42,25.00
2015,07,19,11,43,25.10
2015,07,19,11,44,25.20
2015,07,19,11,45,25.20
2015,07,19,11,46,25.30
2015,07,19,11,47,25.30
2015,07,19,11,48,25.30
2015,07,19,11,49,25.30
2015,07,19,11,50,25.40
2015,07,19,11,51,25.40
2015,07,19,11,52,25.40
2015,07,19,11,53,25.40
2015,07,19,11,54,25.30
2015,07,19,11,55,25.20
2015,07,19,11,56,25.20
2015,07,19,11,57,25.20
2015,07,19,11,58,25.20
2015,07,19,11,59,25.10
2015,07,19,12,00,25.00
2015,07,19,12,01,24.80
2015,07,19,12,02,24.70
2015,07,19,12,03,24.60
2015,07,19,12,04,24.60
2015,07,19,12,05,24.50
2015,07,19,12,06,24.40
2015,07,19,12,07,24.30
2015,07,19,12,08,24.30
2015,07,19,12,09,24.30
2015,07,19,12,10,24.30
2015,07,19,12,11,24.30
2015,07,19,12,12,24.30
2015,07,19,12,13,24.30
2015,07,19,12,14,24.30
2015,07,19,12,15,24.40
2015,07,19,12,16,24.40
2015,07,19,12,17,24.50
2015,07,19,12,18,24.60
2015,07,19,12,19,24.70
2015,07,19,12,20,24.90
2015,07,19,12,21,25.00
2015,07,19,12,22,25.10
2015,07,19,12,23,25.20
2015,07,19,12,24,25.10
2015,07,19,12,25,25.00
2015,07,19,12,26,25.00
2015,07,19,12,27,25.00
2015,07,19,12,28,25.10
2015,07,19,12,29,25.20
2015,07,19,12,30,25.20
2015,07,19,12,31,25.30
2015,07,19,12,32,25.30
2015,07,19,12,33,25.40
2015,07,19,12,34,25.60
2015,07,19,12,35,25.80
2015,07,19,12,36,26.00
2015,07,19,12,37,26.20
2015,07,19,12,38,26.30
2015,07,19,12,39,26.20
2015,07,19,12,40,26.20
2015,07,19,12,41,26.20
2015,07,19,12,42,26.20
2015,07,19,12,43,26.20
2015,07,19,12,44,26.30
2015,07,19,12,45,26.40
2015,07,19,12,46,26.50
2015,07,19,12,47,26.60
2015,07,19,12,48,26.60
2015,07,19,12,49,26.70
2015,07,19,12,50,26.80
2015,07,19,12,51,26.80
2015,07,19,12,52,26.80
2015,07,19,12,53,26.70
2015,07,19,12,54,26.60
2015,07,19,12,55,26.60
2015,07,19,12,56,26.50
2015,07,19,12,57,26.40
2015,07,19,12,58,26.40
2015,07,19,12,59,26.30
2015,07,19,13,00,26.30
2015,07,19,13,01,26.20
2015,07,19,13,02,26.10
2015,07,19,13,03,26.10
2015,07,19,13,04,26.20
2015,07,19,13,05,26.30
2015,07,19,13,06,26.30
2015,07,19,13,07,26.20
2015,07,19,13,08,26.20
2015,07,19,13,09,26.20
2015,07,19,13,10,26.20
2015,07,19,13,11,26.30
2015,07,19,13,12,26.30
2015,07,19,13,13,26.20
2015,07,19,13,14,26.20
2015,07,19,13,15,26.20
2015,07,19,13,16,26.10
2015,07,19,13,17,25.90
2015,07,19,13,18,25.60
2015,07,19,13,19,25.60
2015,07,19,13,20,25.60
2015,07,19,13,21,25.60
2015,07,19,13,22,25.70
2015,07,19,13,23,25.80
2015,07,19,13,24,25.90
2015,07,19,13,25,26.00
2015,07,19,13,26,26.10
2015,07,19,13,27,26.20
2015,07,19,13,28,26.20
2015,07,19,13,29,26.40
2015,07,19,13,30,26.40
2015,07,19,13,31,26.40
2015,07,19,13,32,26.20
2015,07,19,13,33,26.00
2015,07,19,13,34,25.90
2015,07,19,13,35,25.80
2015,07,19,13,36,25.70
2015,07,19,13,37,25.70
2015,07,19,13,38,25.70
2015,07,19,13,39,25.80
2015,07,19,13,40,25.90
2015,07,19,13,41,25.90
2015,07,19,13,42,25.90
2015,07,19,13,43,25.90
2015,07,19,13,44,25.90
2015,07,19,13,45,26.00
2015,07,19,13,46,26.00
2015,07,19,13,47,26.10
2015,07,19,13,48,26.20
2015,07,19,13,49,26.20
2015,07,19,13,50,26.20
2015,07,19,13,51,26.20
2015,07,19,13,52,26.20
2015,07,19,13,53,26.20
2015,07,19,13,54,26.20
2015,07,19,13,55,26.20
2015,07,19,13,56,26.20
2015,07,19,13,57,26.20
2015,07,19,13,58,26.30
2015,07,19,13,59,26.30
2015,07,19,14,00,26.30
2015,07,19,14,01,26.20
2015,07,19,14,02,26.20
2015,07,19,14,03,26.30
2015,07,19,14,04,26.30
2015,07,19,14,05,26.30
2015,07,19,14,06,26.40
2015,07,19,14,07,26.50
2015,07,19,14,08,26.50
2015,07,19,14,09,26.40
2015,07,19,14,10,26.50
2015,07,19,14,11,26.50
2015,07,19,14,12,26.70
2015,07,19,14,13,26.80
2015,07,19,14,14,26.90
2015,07,19,14,15,27.00
2015,07,19,14,16,27.00
2015,07,19,14,17,27.00
2015,07,19,14,18,27.10
2015,07,19,14,19,27.10
2015,07,19,14,20,27.30
2015,07,19,14,21,27.40
2015,07,19,14,22,27.50
2015,07,19,14,23,27.70
2015,07,19,14,24,27.70
2015,07,19,14,25,27.80
2015,07,19,14,26,27.90
2015,07,19,14,27,27.90
2015,07,19,14,28,27.70
2015,07,19,14,29,27.50
2015,07,19,14,30,27.30
2015,07,19,14,31,27.10
2015,07,19,14,32,27.00
2015,07,19,14,33,26.90
2015,07,19,14,34,26.90
2015,07,19,14,35,26.90
2015,07,19,14,36,26.90
2015,07,19,14,37,27.00
2015,07,19,14,38,27.10
2015,07,19,14,39,27.10
2015,07,19,14,40,27.30
2015,07,19,14,41,27.30
2015,07,19,14,42,27.30
2015,07,19,14,43,27.30
2015,07,19,14,44,27.30
2015,07,19,14,45,27.40
2015,07,19,14,46,27.40
2015,07,19,14,47,27.40
2015,07,19,14,48,27.50
2015,07,19,14,49,27.40
2015,07,19,14,50,27.50
2015,07,19,14,51,27.50
2015,07,19,14,52,27.60
2015,07,19,14,53,27.60
2015,07,19,14,54,27.60
2015,07,19,14,55,27.60
2015,07,19,14,56,27.70
2015,07,19,14,57,27.70
2015,07,19,14,58,27.70
2015,07,19,14,59,27.60
2015,07,19,15,00,27.60
2015,07,19,15,01,27.50
2015,07,19,15,02,27.50
2015,07,19,15,03,27.40
2015,07,19,15,04,27.50
2015,07,19,15,05,27.60
2015,07,19,15,06,27.70
2015,07,19,15,07,27.80
2015,07,19,15,08,27.80
2015,07,19,15,09,27.90
2015,07,19,15,10,27.90
2015,07,19,15,11,27.90
2015,07,19,15,12,28.00
2015,07,19,15,13,28.00
2015,07,19,15,14,28.10
2015,07,19,15,15,28.20
2015,07,19,15,16,28.20
2015,07,19,15,17,28.30
2015,07,19,15,18,28.30
2015,07,19,15,19,28.30
2015,07,19,15,20,28.00
2015,07,19,15,21,27.80
2015,07,19,15,22,27.90
2015,07,19,15,23,28.00
2015,07,19,15,24,28.10
2015,07,19,15,25,28.20
2015,07,19,15,26,28.30
2015,07,19,15,27,28.30
2015,07,19,15,28,28.20
2015,07,19,15,29,28.10
2015,07,19,15,30,28.10
2015,07,19,15,31,28.20
2015,07,19,15,32,28.20
2015,07,19,15,33,28.10
2015,07,19,15,34,28.00
2015,07,19,15,35,27.80
2015,07,19,15,36,27.70
2015,07,19,15,37,27.50
2015,07,19,15,38,27.30
2015,07,19,15,39,27.20
2015,07,19,15,40,27.20
2015,07,19,15,41,27.10
2015,07,19,15,42,27.10
2015,07,19,15,43,27.00
2015,07,19,15,44,26.90
2015,07,19,15,45,26.70
2015,07,19,15,46,26.60
2015,07,19,15,47,26.50
2015,07,19,15,48,26.40
2015,07,19,15,49,26.40
2015,07,19,15,50,26.40
2015,07,19,15,51,26.40
2015,07,19,15,52,26.30
2015,07,19,15,53,26.30
2015,07,19,15,54,26.40
2015,07,19,15,55,26.50
2015,07,19,15,56,26.60
2015,07,19,15,57,26.70
2015,07,19,15,58,26.70
2015,07,19,15,59,26.70
2015,07,19,16,00,26.80
2015,07,19,16,01,26.90
2015,07,19,16,02,26.90
2015,07,19,16,03,26.90
2015,07,19,16,04,26.90
2015,07,19,16,05,26.70
2015,07,19,16,06,26.50
2015,07,19,16,07,26.30
2015,07,19,16,08,26.20
2015,07,19,16,09,26.10
2015,07,19,16,10,26.10
2015,07,19,16,11,26.30
2015,07,19,16,12,26.50
2015,07,19,16,13,26.70
2015,07,19,16,14,26.90
2015,07,19,16,15,27.10
2015,07,19,16,16,27.00
2015,07,19,16,17,26.90
2015,07,19,16,18,26.80
2015,07,19,16,19,26.70
2015,07,19,16,20,26.50
2015,07,19,16,21,26.20
2015,07,19,16,22,25.90
2015,07,19,16,23,25.80
2015,07,19,16,24,25.60
2015,07,19,16,25,25.40
2015,07,19,16,26,25.20
2015,07,19,16,27,25.10
2015,07,19,16,28,25.00
2015,07,19,16,29,24.90
2015,07,19,16,30,24.90
2015,07,19,16,31,25.10
2015,07,19,16,32,25.10
2015,07,19,16,33,25.00
2015,07,19,16,34,24.90
2015,07,19,16,35,24.80
2015,07,19,16,36,24.70
2015,07,19,16,37,24.60
2015,07,19,16,38,24.60
2015,07,19,16,39,24.60
2015,07,19,16,40,24.60
2015,07,19,16,41,24.70
2015,07,19,16,42,24.70
2015,07,19,16,43,24.80
2015,07,19,16,44,24.90
2015,07,19,16,45,25.10
2015,07,19,16,46,25.20
2015,07,19,16,47,25.20
2015,07,19,16,48,25.20
2015,07,19,16,49,25.20
2015,07,19,16,50,25.10
2015,07,19,16,51,25.10
2015,07,19,16,52,25.00
2015,07,19,16,53,25.00
2015,07,19,16,54,24.90
2015,07,19,16,55,24.90
2015,07,19,16,56,24.90
2015,07,19,16,57,25.00
2015,07,19,16,58,25.10
2015,07,19,16,59,25.30
2015,07,19,17,00,25.40
2015,07,19,17,01,25.40
2015,07,19,17,02,25.50
2015,07,19,17,03,25.40
2015,07,19,17,04,25.40
2015,07,19,17,05,25.50
2015,07,19,17,06,25.50
2015,07,19,17,07,25.50
2015,07,19,17,08,25.40
2015,07,19,17,09,25.40
2015,07,19,17,10,25.40
2015,07,19,17,11,25.50
2015,07,19,17,12,25.60
2015,07,19,17,13,25.60
2015,07,19,17,14,25.50
2015,07,19,17,15,25.50
2015,07,19,17,16,25.40
2015,07,19,17,17,25.30
2015,07,19,17,18,25.30
2015,07,19,17,19,25.30